Location: Demmingen
(48.6757°N, 10.4375°E)
Time: 22:57:38
(UTC+00:00)

CZ-2C R/B - Pass Details

Date: 04 August 2024
Orbit: 703 x 904 km, 98.2° (Epoch: 07 September)

Event Time Altitude Azimuth Distance (km) Brightness Sun altitude
Rises 00:28:46 0° 23° (NNE) 3,134 7.6 -22.6°
Reaches altitude 10° 00:31:18 10° 35° (NE) 2,228 6.4 -22.5°
Maximum altitude 00:35:29 28° 94° (E) 1,381 4.4 -22.3°
Enters shadow 00:37:30 21° 131° (SE) 1,633 4.5 -22.2°
